TimeEST,TemperatureF,Dew PointF,Humidity,Sea Level PressureIn,VisibilityMPH,Wind Direction,Wind SpeedMPH,Gust SpeedMPH,PrecipitationIn,Events,Conditions,WindDirDegrees,DateUTC
12:53 AM,32.0,30.9,96,30.53,5.0,Calm,Calm,-,N/A,,Clear,0,2012-11-17 05:53:00
1:53 AM,30.9,30.0,96,30.54,4.0,Calm,Calm,-,N/A,,Clear,0,2012-11-17 06:53:00
2:53 AM,30.9,30.0,96,30.56,5.0,Calm,Calm,-,N/A,,Clear,0,2012-11-17 07:53:00
3:53 AM,30.0,28.9,96,30.56,4.0,Calm,Calm,-,N/A,,Clear,0,2012-11-17 08:53:00
4:19 AM,30.2,30.2,100,30.54,1.8,Calm,Calm,-,N/A,,Clear,0,2012-11-17 09:19:00
4:28 AM,28.4,28.4,100,30.54,0.5,Calm,Calm,-,N/A,Fog,Light Freezing Fog,0,2012-11-17 09:28:00
4:35 AM,30.2,28.4,93,30.55,2.0,Calm,Calm,-,N/A,,Clear,0,2012-11-17 09:35:00
4:44 AM,30.2,30.2,100,30.55,5.0,Calm,Calm,-,N/A,,Clear,0,2012-11-17 09:44:00
4:53 AM,30.0,28.9,96,30.57,5.0,Calm,Calm,-,N/A,,Clear,0,2012-11-17 09:53:00
5:53 AM,30.0,28.9,96,30.59,3.0,Calm,Calm,-,N/A,,Clear,0,2012-11-17 10:53:00
6:04 AM,28.4,28.4,100,30.57,3.0,Calm,Calm,-,N/A,,Scattered Clouds,0,2012-11-17 11:04:00
6:09 AM,30.2,28.4,93,30.57,2.5,Calm,Calm,-,N/A,,Mostly Cloudy,0,2012-11-17 11:09:00
6:16 AM,30.2,28.4,93,30.57,1.0,Calm,Calm,-,N/A,,Mist,0,2012-11-17 11:16:00
6:23 AM,28.4,28.4,100,30.57,2.0,Calm,Calm,-,N/A,,Scattered Clouds,0,2012-11-17 11:23:00
6:35 AM,28.4,28.4,100,30.58,3.0,Calm,Calm,-,N/A,,Partly Cloudy,0,2012-11-17 11:35:00
6:53 AM,30.0,30.0,100,30.61,4.0,North,5.8,-,N/A,,Clear,360,2012-11-17 11:53:00
7:27 AM,28.4,28.4,100,30.59,2.0,Calm,Calm,-,N/A,,Clear,0,2012-11-17 12:27:00
7:53 AM,30.0,28.9,96,30.62,3.0,Calm,Calm,-,N/A,,Clear,0,2012-11-17 12:53:00
8:53 AM,33.1,30.9,92,30.63,3.0,Calm,Calm,-,N/A,,Clear,0,2012-11-17 13:53:00
9:53 AM,43.0,32.0,65,30.64,6.0,Calm,Calm,-,N/A,,Haze,0,2012-11-17 14:53:00
10:53 AM,46.9,30.9,54,30.64,10.0,South,4.6,-,N/A,,Clear,180,2012-11-17 15:53:00
11:53 AM,48.9,30.9,50,30.63,10.0,SSE,4.6,-,N/A,,Clear,150,2012-11-17 16:53:00
12:53 PM,51.1,32.0,48,30.61,10.0,Variable,4.6,-,N/A,,Clear,0,2012-11-17 17:53:00
1:53 PM,52.0,32.0,47,30.59,10.0,Variable,3.5,-,N/A,,Clear,0,2012-11-17 18:53:00
2:53 PM,52.0,32.0,47,30.59,10.0,South,3.5,-,N/A,,Clear,180,2012-11-17 19:53:00
3:53 PM,50.0,32.0,50,30.59,10.0,SE,6.9,-,N/A,,Clear,130,2012-11-17 20:53:00
4:53 PM,46.9,32.0,56,30.59,8.0,ESE,4.6,-,N/A,,Clear,110,2012-11-17 21:53:00
5:53 PM,44.1,32.0,63,30.59,8.0,ESE,3.5,-,N/A,,Clear,120,2012-11-17 22:53:00
6:53 PM,42.1,32.0,67,30.58,6.0,SE,4.6,-,N/A,,Haze,140,2012-11-17 23:53:00
7:53 PM,41.0,32.0,70,30.58,5.0,Calm,Calm,-,N/A,,Haze,0,2012-11-18 00:53:00
8:53 PM,39.0,32.0,76,30.59,4.0,ESE,3.5,-,N/A,,Haze,120,2012-11-18 01:53:00
9:53 PM,37.9,32.0,79,30.58,4.0,ESE,4.6,-,N/A,,Haze,110,2012-11-18 02:53:00
10:23 PM,39.2,32.0,75,30.57,2.5,Calm,Calm,-,N/A,,Haze,0,2012-11-18 03:23:00
10:53 PM,37.0,32.0,82,30.58,2.0,NNE,3.5,-,N/A,,Haze,30,2012-11-18 03:53:00
11:00 PM,35.6,32.0,87,30.56,1.5,NNE,3.5,-,N/A,,Clear,30,2012-11-18 04:00:00
11:11 PM,37.4,32.0,81,30.56,2.0,ENE,3.5,-,N/A,,Haze,60,2012-11-18 04:11:00
11:32 PM,35.6,32.0,87,30.56,0.8,Calm,Calm,-,N/A,,Mist,0,2012-11-18 04:32:00
11:51 PM,33.8,32.0,93,30.56,1.2,Calm,Calm,-,N/A,,Partly Cloudy,0,2012-11-18 04:51:00
11:53 PM,34.0,30.9,89,30.58,2.0,Calm,Calm,-,N/A,,Partly Cloudy,0,2012-11-18 04:53:00
11:57 PM,32.0,30.2,93,30.57,1.0,North,3.5,-,N/A,,Mist,360,2012-11-18 04:57:00